Location: Navajo
(48.7922°N, 105.0603°W)
Time: 10:04:50
(UTC+00:00)

KKS-1 - Pass Details

Date: 06 July 2022
Orbit: 634 x 649 km, 98.2° (Epoch: 17 August)

Event Time Altitude Azimuth Distance (km) Brightness Sun altitude
Rises 04:13:55 0° 24° (NNE) 2,976 ? -9.0°
Reaches altitude 10° 04:16:29 10° 38° (NE) 2,058 ? -9.2°
Maximum altitude 04:20:11 25° 94° (E) 1,310 ? -9.6°
Enters shadow 04:23:10 13° 143° (SE) 1,822 ? -9.9°
